FW4448 East Hampton NY US current weather conditions

sailwx.info

Wind from 330

Air temperature -3.9° C
Dewpoint -6.8° C

Last reported at 2020-Jan-23 01:03 UTC.
Time now 2020-Jan-23 01:22 UTC

Location: N 40°58' W 072°12'.
View on Google Maps.

See reports from other nearby stations

  
Tides and Currents Weather Stations Pressure Air Temp Water Temp Dewpoint Dewpoint Depression Visibility Wind Speed Wind Dir Waves Ship Positions
date/time (UTC)wind fromknots sea level pressurealtimeterstation pressurevisibilityair tempwater tempwave heightnotes
2020-Jan-23 01:09 330 0 gusting 0 -3.9
2020-Jan-23 01:03 330 -3.9
2020-Jan-23 00:59 330 -3.9
2020-Jan-23 00:53 330 0 gusting 1 -3.3
2020-Jan-23 00:49 330 0 gusting 1 -3.3
2020-Jan-23 00:43 330 -3.9
2020-Jan-23 00:39 330 -3.9
2020-Jan-23 00:33 330 0 gusting 0 -3.3
2020-Jan-23 00:29 330 -3.3
2020-Jan-23 00:23 330 -3.3
2020-Jan-23 00:19 330 -3.3
2020-Jan-23 00:13 330 -3.3
2020-Jan-23 00:09 330 -3.3
2020-Jan-23 00:03 330 -2.8
2020-Jan-22 23:59 330 -2.8
2020-Jan-22 23:53 330 0 gusting 2 -2.8
2020-Jan-22 23:49 330 -2.8
2020-Jan-22 23:43 300 0 gusting 1 -3.3
2020-Jan-22 23:39 300 0 gusting 1 -3.3
2020-Jan-22 23:33 300 0 gusting 2 -2.8
2020-Jan-22 23:29 300 1 gusting 2 -2.8
2020-Jan-22 23:23 295 1 gusting 1 -2.8
2020-Jan-22 23:19 294 -2.8
2020-Jan-22 23:13 294 -2.8
2020-Jan-22 23:09 294 -2.8
2020-Jan-22 23:03 294 -2.8
2020-Jan-22 22:59 295 -2.8
2020-Jan-22 22:53 295 -2.8
2020-Jan-22 22:49 294 -2.8
2020-Jan-22 22:43 294 -2.8
2020-Jan-22 22:39 294 -2.2
2020-Jan-22 22:33 294 -2.2
2020-Jan-22 22:29 295 -2.2
2020-Jan-22 22:23 294 -1.7
2020-Jan-22 22:19 294 0 gusting 1 -1.7
2020-Jan-22 22:13 294 -1.7
2020-Jan-22 22:09 294 -1.7
2020-Jan-22 22:03 294 -1.1
2020-Jan-22 21:59 294 0 gusting 2 -1.1
2020-Jan-22 21:53 294 0 gusting 3 -0.6
2020-Jan-22 21:49 294 1 gusting 3 -0.6
2020-Jan-22 21:43 285 0 gusting 5 -0.0
2020-Jan-22 21:39 285 1 gusting 6 -0.0
2020-Jan-22 21:33 298 1 gusting 4 0.6
2020-Jan-22 21:29 317 2 gusting 6 0.6
2020-Jan-22 21:23 317 3 gusting 6 0.6
2020-Jan-22 21:19 313 0 gusting 4 0.6
2020-Jan-22 21:13 298 1 gusting 5 0.6
2020-Jan-22 21:09 342 2 gusting 6 0.6
2020-Jan-22 21:03 300 1 gusting 9 0.6
2020-Jan-22 20:59 329 3 gusting 9 1.1
2020-Jan-22 20:53 331 2 gusting 6 1.1
2020-Jan-22 20:49 302 3 gusting 6 1.1
2020-Jan-22 20:43 312 1 gusting 6 1.1
2020-Jan-22 20:39 311 3 gusting 6 1.1
2020-Jan-22 20:33 342 2 gusting 8 1.1
2020-Jan-22 20:29 336 3 gusting 8 1.1
2020-Jan-22 20:23 275 2 gusting 8 1.1
2020-Jan-22 20:19 327 3 gusting 9 0.6
2020-Jan-22 20:13 323 3 gusting 9 1.1
2020-Jan-22 20:09 316 5 gusting 7 1.1
2020-Jan-22 20:03 326 4 gusting 9 1.1
2020-Jan-22 19:59 300 5 gusting 9 1.1
2020-Jan-22 19:53 291 1 gusting 6 1.7
2020-Jan-22 19:49 286 3 gusting 8 1.1
2020-Jan-22 19:43 343 5 gusting 9 1.1
2020-Jan-22 19:39 302 4 gusting 9 1.1
2020-Jan-22 19:33 324 6 gusting 9 1.7
2020-Jan-22 19:29 316 4 gusting 9 1.7
2020-Jan-22 19:23 336 2 gusting 7 2.2
2020-Jan-22 19:19 360 2 gusting 8 1.7
2020-Jan-22 19:13 318 4 gusting 8 2.2
2020-Jan-22 19:09 338 4 gusting 7 2.2
2020-Jan-22 19:03 314 4 gusting 7 1.7
2020-Jan-22 18:59 321 5 gusting 8 1.7
2020-Jan-22 18:53 289 3 gusting 8 1.7
2020-Jan-22 18:49 340 2 gusting 7 1.1
2020-Jan-22 18:43 329 3 gusting 7 1.7
2020-Jan-22 18:39 298 4 gusting 8 1.7
2020-Jan-22 18:33 342 4 gusting 8 1.7
2020-Jan-22 18:29 290 2 gusting 7 1.7
2020-Jan-22 18:23 311 3 gusting 7 1.1
2020-Jan-22 18:19 331 3 gusting 8 1.7
2020-Jan-22 18:13 323 4 gusting 8 1.7
2020-Jan-22 18:09 327 3 gusting 8 1.7
2020-Jan-22 18:03 269 3 gusting 8 1.7
2020-Jan-22 17:59 327 2 gusting 6 1.7
2020-Jan-22 17:53 311 3 gusting 8 1.1
2020-Jan-22 17:49 005 3 gusting 8 1.1
2020-Jan-22 17:43 238 1 gusting 7 1.1
2020-Jan-22 17:39 307 3 gusting 7 1.1
2020-Jan-22 17:33 298 4 gusting 8 1.1
2020-Jan-22 17:29 287 2 gusting 8 1.1
2020-Jan-22 17:23 295 4 gusting 6 1.7
2020-Jan-22 17:19 331 1 gusting 5 1.1
2020-Jan-22 17:13 323 2 gusting 7 1.1
2020-Jan-22 17:09 360 1 gusting 8 1.1
2020-Jan-22 17:03 339 2 gusting 9 1.1
2020-Jan-22 16:59 020 3 gusting 9 1.1
2020-Jan-22 16:53 331 3 gusting 7 1.1
2020-Jan-22 16:49 316 3 gusting 7 1.1
2020-Jan-22 16:43 271 2 gusting 6 1.1
2020-Jan-22 16:39 326 3 gusting 5 1.1
2020-Jan-22 16:33 344 1 gusting 6 0.6
2020-Jan-22 16:29 315 3 gusting 6 1.1
2020-Jan-22 16:23 303 1 gusting 6 0.6
2020-Jan-22 16:19 340 0.6
2020-Jan-22 16:13 307 2 gusting 5 0.6
2020-Jan-22 16:09 021 1 gusting 7 0.6
2020-Jan-22 16:03 279 3 gusting 6 -0.0
2020-Jan-22 15:59 305 2 gusting 5 -0.0
2020-Jan-22 15:53 005 2 gusting 5 -0.0
2020-Jan-22 15:49 285 1 gusting 4 -0.0
2020-Jan-22 15:43 335 0 gusting 4 -0.0
2020-Jan-22 15:39 021 0 gusting 4 -0.0
2020-Jan-22 15:33 347 1 gusting 5 -0.0
2020-Jan-22 15:29 019 1 gusting 5 -0.6
2020-Jan-22 15:23 331 1 gusting 6 -0.0
2020-Jan-22 15:19 334 1 gusting 6 -0.0
2020-Jan-22 15:13 327 1 gusting 6 -0.6
2020-Jan-22 15:09 306 3 gusting 6 -0.6
2020-Jan-22 15:03 332 2 gusting 5 -0.6
2020-Jan-22 14:59 332 1 gusting 8 -0.6
2020-Jan-22 14:53 312 1 gusting 8 -0.6
2020-Jan-22 14:49 333 2 gusting 5 -0.6
2020-Jan-22 14:43 332 1 gusting 9 -1.1
2020-Jan-22 14:39 348 2 gusting 9 -1.1
2020-Jan-22 14:33 024 1 gusting 7 -1.1
2020-Jan-22 14:29 311 2 gusting 6 -1.1
2020-Jan-22 14:23 315 3 gusting 6 -1.7
2020-Jan-22 14:19 334 0 gusting 6 -1.7
2020-Jan-22 14:13 324 3 gusting 8 -1.7
2020-Jan-22 14:09 350 3 gusting 8 -1.7
2020-Jan-22 14:03 326 1 gusting 5 -2.2
2020-Jan-22 13:59 330 0 gusting 4 -2.2
2020-Jan-22 13:53 005 1 gusting 3 -2.2
2020-Jan-22 13:49 332 1 gusting 5 -2.2
2020-Jan-22 13:43 322 1 gusting 5 -2.8
2020-Jan-22 13:39 048 -2.8
2020-Jan-22 13:33 344 0 gusting 3 -3.3
2020-Jan-22 13:29 319 -3.9
2020-Jan-22 13:23 319 0 gusting 1 -4.4
2020-Jan-22 13:19 319 0 gusting 2 -5.0
2020-Jan-22 13:13 319 1 gusting 2 -5.6
2020-Jan-22 13:09 315 0 gusting 2 -6.1
2020-Jan-22 13:03 314 1 gusting 2 -6.7
2020-Jan-22 12:59 306 1 gusting 2 -7.2
2020-Jan-22 12:53 342 0 gusting 2 -7.8
2020-Jan-22 12:49 342 0 gusting 2 -7.8
2020-Jan-22 12:43 315 1 gusting 2 -8.3
2020-Jan-22 12:39 344 0 gusting 1 -8.3
2020-Jan-22 12:33 344 0 gusting 0 -8.9
2020-Jan-22 12:29 344 -8.9
2020-Jan-22 12:23 344 -8.9
2020-Jan-22 12:19 344 -8.9
2020-Jan-22 12:13 344 0 gusting 0 -8.9
2020-Jan-22 12:09 344 -8.9
2020-Jan-22 12:03 344 -8.9
2020-Jan-22 11:59 344 -8.9
2020-Jan-22 11:53 344 0 gusting 1 -8.9
2020-Jan-22 11:49 344 0 gusting 1 -8.9
2020-Jan-22 11:43 344 0 gusting 0 -8.9
2020-Jan-22 11:39 344 -8.9
2020-Jan-22 11:33 344 -8.9
2020-Jan-22 11:29 344 -8.9
2020-Jan-22 11:23 344 0 gusting 0 -8.9
2020-Jan-22 11:19 344 0 gusting 1 -8.9
2020-Jan-22 11:13 344 0 gusting 1 -8.9
2020-Jan-22 11:09 344 -8.9
2020-Jan-22 11:03 344 0 gusting 1 -8.9
2020-Jan-22 10:59 344 -8.9
2020-Jan-22 10:53 344 -8.9
2020-Jan-22 10:49 344 0 gusting 1 -8.9
2020-Jan-22 10:43 344 0 gusting 1 -8.9
2020-Jan-22 10:39 344 -8.9
2020-Jan-22 10:33 344 -8.9
2020-Jan-22 10:29 344 0 gusting 1 -8.9
2020-Jan-22 10:23 344 0 gusting 1 -8.9
2020-Jan-22 10:19 344 0 gusting 0 -8.9
2020-Jan-22 10:13 344 -8.9
2020-Jan-22 10:09 344 -8.9
2020-Jan-22 10:03 344 0 gusting 1 -8.9
2020-Jan-22 09:59 344 0 gusting 1 -8.9
2020-Jan-22 09:53 344 0 gusting 0 -8.9
2020-Jan-22 09:49 344 0 gusting 0 -8.9
2020-Jan-22 09:43 344 0 gusting 0 -8.9
2020-Jan-22 09:39 344 0 gusting 0 -8.9
2020-Jan-22 09:33 344 -8.9
2020-Jan-22 09:29 344 -8.9
2020-Jan-22 09:23 344 -8.9
2020-Jan-22 09:19 344 -8.9
2020-Jan-22 09:13 344 -8.9
2020-Jan-22 09:09 344 -8.3
2020-Jan-22 09:03 344 -8.3
2020-Jan-22 08:59 344 -8.3
2020-Jan-22 08:53 344 -8.3
2020-Jan-22 08:49 344 -8.3
2020-Jan-22 08:43 344 -8.3
2020-Jan-22 08:39 344 -8.3
2020-Jan-22 08:33 344 -8.3
2020-Jan-22 08:29 344 -8.3
2020-Jan-22 08:23 344 -8.3
2020-Jan-22 08:19 344 -8.3
2020-Jan-22 08:13 344 -7.8
2020-Jan-22 08:09 344 -7.8
2020-Jan-22 08:04 344 -7.8
2020-Jan-22 07:59 344 -7.8
2020-Jan-22 07:53 344 -7.8
2020-Jan-22 07:49 344 -7.8
2020-Jan-22 07:43 344 -7.8
2020-Jan-22 07:39 344 -7.8
2020-Jan-22 07:33 344 -7.2
2020-Jan-22 07:29 344 0 gusting 2 -7.2
2020-Jan-22 07:23 340 0 gusting 0 -7.2
2020-Jan-22 07:19 340 -7.2
2020-Jan-22 07:13 340 0 gusting 2 -7.2
2020-Jan-22 07:09 360 0 gusting 2 -7.2
2020-Jan-22 07:03 334 0 gusting 2 -7.2
2020-Jan-22 06:59 355 0 gusting 2 -7.2
2020-Jan-22 06:53 344 0 gusting 1 -7.2
2020-Jan-22 06:49 016 0 gusting 1 -7.2
2020-Jan-22 06:43 347 0 gusting 1 -7.8
2020-Jan-22 06:39 329 -7.8
2020-Jan-22 06:33 329 -7.2
2020-Jan-22 06:29 329 0 gusting 1 -7.2
2020-Jan-22 06:23 329 -7.2
2020-Jan-22 06:19 329 0 gusting 1 -7.2
2020-Jan-22 06:13 329 0 gusting 1 -7.2
2020-Jan-22 06:09 329 0 gusting 1 -7.2
2020-Jan-22 06:03 329 -7.2
2020-Jan-22 05:59 329 -6.7
2020-Jan-22 05:53 329 -6.7
2020-Jan-22 05:49 329 0 gusting 1 -6.7
2020-Jan-22 05:43 329 0 gusting 1 -6.1
2020-Jan-22 05:39 329 0 gusting 1 -6.1
2020-Jan-22 05:33 341 0 gusting 1 -6.1
2020-Jan-22 05:29 324 0 gusting 1 -6.1
2020-Jan-22 05:23 319 0 gusting 2 -5.6
2020-Jan-22 05:19 325 0 gusting 3 -5.6
2020-Jan-22 05:13 332 1 gusting 3 -5.6
2020-Jan-22 05:09 337 0 gusting 2 -5.6
2020-Jan-22 05:03 355 0 gusting 3 -5.6
2020-Jan-22 04:59 342 1 gusting 3 -5.6
2020-Jan-22 04:53 011 0 gusting 4 -5.6
2020-Jan-22 04:49 355 0 gusting 3 -5.6
2020-Jan-22 04:43 337 1 gusting 2 -5.6
2020-Jan-22 04:39 022 0 gusting 3 -5.6
2020-Jan-22 04:33 009 1 gusting 3 -5.6
2020-Jan-22 04:29 345 0 gusting 3 -5.6
2020-Jan-22 04:23 005 0 gusting 2 -5.6
2020-Jan-22 04:19 017 0 gusting 2 -5.6
2020-Jan-22 04:13 323 0 gusting 5 -5.6
2020-Jan-22 04:09 328 0 gusting 5 -5.6
2020-Jan-22 04:03 351 0 gusting 4 -5.6
2020-Jan-22 03:59 355 0 gusting 4 -5.6
2020-Jan-22 03:53 011 1 gusting 4 -6.1
2020-Jan-22 03:49 342 0 gusting 3 -6.1
2020-Jan-22 03:43 319 0 gusting 3 -5.6
2020-Jan-22 03:39 343 0 gusting 2 -5.6
2020-Jan-22 03:33 344 0 gusting 3 -5.6
2020-Jan-22 03:29 021 1 gusting 3 -5.6
2020-Jan-22 03:23 031 1 gusting 3 -5.6
2020-Jan-22 03:19 005 0 gusting 2 -5.6
2020-Jan-22 03:13 005 0 gusting 2 -5.6
2020-Jan-22 03:09 349 0 gusting 2 -5.6
2020-Jan-22 03:03 342 0 gusting 2 -5.6
2020-Jan-22 02:59 326 0 gusting 1 -5.6
2020-Jan-22 02:53 345 0 gusting 1 -5.0
2020-Jan-22 02:49 345 0 gusting 4 -5.0
2020-Jan-22 02:43 345 0 gusting 4 -4.4
2020-Jan-22 02:39 321 1 gusting 3 -4.4
2020-Jan-22 02:33 355 1 gusting 5 -4.4
2020-Jan-22 02:29 317 1 gusting 5 -5.0
2020-Jan-22 02:23 351 1 gusting 4 -5.0
2020-Jan-22 02:19 355 1 gusting 4 -5.0
2020-Jan-22 02:13 327 0 gusting 4 -5.0
2020-Jan-22 02:09 338 0 gusting 2 -5.6
2020-Jan-22 02:03 338 0 gusting 3 -5.6
2020-Jan-22 01:59 333 1 gusting 3 -5.6
2020-Jan-22 01:53 347 0 gusting 2 -5.6
2020-Jan-22 01:49 348 0 gusting 2 -5.6
2020-Jan-22 01:43 340 0 gusting 2 -5.6
2020-Jan-22 01:39 340 0 gusting 3 -5.6
2020-Jan-22 01:33 342 0 gusting 3 -5.6
2020-Jan-22 01:29 328 0 gusting 3 -5.0
2020-Jan-22 01:23 317 1 gusting 3 -5.0
2020-Jan-22 01:19 321 1 gusting 3 -5.6
2020-Jan-22 01:13 324 0 gusting 2 -5.6
2020-Jan-22 01:09 325 1 gusting 2 -5.6
2020-Jan-22 01:03 325 0 gusting 2 -6.1
2020-Jan-22 00:59 325 0 gusting 3 -6.1
2020-Jan-22 00:53 316 0 gusting 3 -6.1
2020-Jan-22 00:49 015 0 gusting 1 -6.1
2020-Jan-22 00:43 015 -6.1
2020-Jan-22 00:39 015 0 gusting 1 -6.1
2020-Jan-22 00:33 015 -6.1
2020-Jan-22 00:29 015 -5.6
2020-Jan-22 00:23 015 -5.6
2020-Jan-22 00:19 015 -5.6
2020-Jan-22 00:13 015 0 gusting 1 -5.6
2020-Jan-22 00:09 015 -5.6
2020-Jan-22 00:03 015 -5.6
2020-Jan-21 23:59 015 0 gusting 2 -5.6
2020-Jan-21 23:53 015 0 gusting 2 -5.0
2020-Jan-21 23:49 015 0 gusting 2 -5.0
2020-Jan-21 23:43 018 0 gusting 1 -5.0
2020-Jan-21 23:39 018 0 gusting 1 -5.0
2020-Jan-21 23:33 014 0 gusting 1 -5.0
2020-Jan-21 23:29 014 -5.0
2020-Jan-21 23:23 014 -4.4
2020-Jan-21 23:19 014 -4.4
2020-Jan-21 23:13 034 0 gusting 2 -4.4
2020-Jan-21 23:09 015 -4.4
2020-Jan-21 23:03 015 -4.4
2020-Jan-21 22:59 015 -4.4
2020-Jan-21 22:53 005 0 gusting 2 -3.9
2020-Jan-21 22:49 019 0 gusting 2 -3.9
2020-Jan-21 22:43 014 0 gusting 2 -3.9
2020-Jan-21 22:39 009 -3.9
2020-Jan-21 22:33 341 -3.9
2020-Jan-21 22:29 341 -3.9
2020-Jan-21 22:23 345 -3.9
2020-Jan-21 22:19 325 0 gusting 2 -3.3
2020-Jan-21 22:13 355 0 gusting 3 -3.3
2020-Jan-21 22:09 306 1 gusting 3 -3.3
2020-Jan-21 22:03 339 0 gusting 1 -3.3
2020-Jan-21 21:59 339 0 gusting 2 -3.3
2020-Jan-21 21:53 339 0 gusting 3 -2.8
2020-Jan-21 21:49 328 1 gusting 3 -2.8
2020-Jan-21 21:43 333 1 gusting 3 -2.8
2020-Jan-21 21:39 319 1 gusting 3 -2.8
2020-Jan-21 21:33 327 1 gusting 4 -2.8
2020-Jan-21 21:29 327 1 gusting 4 -2.8
2020-Jan-21 21:23 332 1 gusting 4 -2.8
2020-Jan-21 21:19 309 1 gusting 7 -2.8
2020-Jan-21 21:13 355 0 gusting 8 -2.8
2020-Jan-21 21:09 344 2 gusting 8 -2.8
2020-Jan-21 21:03 298 2 gusting 6 -2.2
2020-Jan-21 21:00 350 2 gusting 6 -2.2
2020-Jan-21 20:53 336 1 gusting 5 -2.8
2020-Jan-21 20:49 324 2 gusting 5 -2.8
2020-Jan-21 20:43 319 1 gusting 5 -2.8
2020-Jan-21 20:39 350 1 gusting 7 -2.8
2020-Jan-21 20:33 333 2 gusting 7 -2.8
2020-Jan-21 20:29 020 1 gusting 6 -2.8
2020-Jan-21 20:23 350 2 gusting 6 -2.8
2020-Jan-21 20:19 037 1 gusting 7 -2.8
2020-Jan-21 20:13 348 2 gusting 11 -2.8
2020-Jan-21 20:09 339 2 gusting 11 -2.2
2020-Jan-21 20:03 044 2 gusting 7 -2.2
2020-Jan-21 19:59 317 2 gusting 7 -2.2
2020-Jan-21 19:53 042 2 gusting 7 -2.2
2020-Jan-21 19:49 355 2 gusting 8 -2.2
2020-Jan-21 19:43 012 2 gusting 7 -2.2
2020-Jan-21 19:39 300 3 gusting 7 -2.2
2020-Jan-21 19:33 022 2 gusting 6 -1.7
2020-Jan-21 19:29 295 2 gusting 8 -2.2
2020-Jan-21 19:23 015 4 gusting 8 -2.2
2020-Jan-21 19:20 286 1 gusting 7 -2.2
2020-Jan-21 19:13 306 2 gusting 7 -1.7
2020-Jan-21 19:09 028 0 gusting 7 -1.7
2020-Jan-21 19:03 360 3 gusting 7 -1.7
2020-Jan-21 18:59 315 1 gusting 8 -1.7
2020-Jan-21 18:53 044 2 gusting 6 -2.2
2020-Jan-21 18:49 312 3 gusting 7 -2.2
2020-Jan-21 18:43 323 1 gusting 7 -2.2
2020-Jan-21 18:39 019 3 gusting 8 -2.2
2020-Jan-21 18:33 290 2 gusting 8 -2.8
2020-Jan-21 18:29 348 3 gusting 7 -2.8
2020-Jan-21 18:23 360 3 gusting 10 -2.8
2020-Jan-21 18:19 328 5 gusting 10 -2.2
2020-Jan-21 18:13 010 2 gusting 7 -2.8
2020-Jan-21 18:09 350 4 gusting 7 -2.2
2020-Jan-21 18:03 315 3 gusting 9 -2.8
2020-Jan-21 17:59 355 2 gusting 8 -2.8
2020-Jan-21 17:53 082 3 gusting 8 -2.8
2020-Jan-21 17:49 315 4 gusting 7 -2.8
2020-Jan-21 17:43 013 1 gusting 7 -2.8
2020-Jan-21 17:39 317 2 gusting 7 -2.8
2020-Jan-21 17:33 325 1 gusting 7 -2.8
2020-Jan-21 17:29 336 1 gusting 8 -2.8
2020-Jan-21 17:23 026 4 gusting 8 -2.8
2020-Jan-21 17:19 310 3 gusting 7 -2.8
2020-Jan-21 17:13 022 3 gusting 8 -2.8
2020-Jan-21 17:09 058 3 gusting 8 -3.3
2020-Jan-21 17:03 348 3 gusting 9 -3.3
2020-Jan-21 16:59 005 4 gusting 9 -2.8
2020-Jan-21 16:53 090 5 gusting 8 -3.3
2020-Jan-21 16:49 323 3 gusting 12 -3.3
2020-Jan-21 16:43 076 4 gusting 12 -3.3
2020-Jan-21 16:39 346 6 gusting 9 -3.3
2020-Jan-21 16:33 346 3 gusting 10 -3.3
2020-Jan-21 16:29 013 6 gusting 10 -3.3
2020-Jan-21 16:23 005 5 gusting 9 -3.3
2020-Jan-21 16:19 066 2 gusting 10 -3.9
2020-Jan-21 16:13 039 5 gusting 10 -3.3
2020-Jan-21 16:09 036 3 gusting 9 -2.8
2020-Jan-21 16:03 030 4 gusting 9 -3.9
2020-Jan-21 15:59 009 4 gusting 10 -3.9
2020-Jan-21 15:53 049 3 gusting 10 -3.9
2020-Jan-21 15:49 047 3 gusting 10 -3.9
2020-Jan-21 15:43 031 2 gusting 7 -3.9
2020-Jan-21 15:39 086 2 gusting 11 -3.9
2020-Jan-21 15:33 037 5 gusting 11 -3.9
2020-Jan-21 15:29 355 4 gusting 10 -3.9
2020-Jan-21 15:23 017 3 gusting 11 -3.9
2020-Jan-21 15:19 049 4 gusting 11 -3.9
2020-Jan-21 15:13 005 4 gusting 10 -3.9
2020-Jan-21 15:09 005 1 gusting 11 -3.9
2020-Jan-21 15:03 024 5 gusting 11 -4.4
2020-Jan-21 14:59 014 2 gusting 12 -3.9
2020-Jan-21 14:53 340 3 gusting 13 -4.4
2020-Jan-21 14:49 028 4 gusting 13 -4.4
2020-Jan-21 14:43 072 3 gusting 10 -4.4
2020-Jan-21 14:39 097 5 gusting 9 -4.4
2020-Jan-21 14:33 011 2 gusting 10 -4.4
2020-Jan-21 14:29 042 5 gusting 10 -4.4
2020-Jan-21 14:23 081 4 gusting 9 -4.4
2020-Jan-21 14:19 344 3 gusting 10 -5.0
2020-Jan-21 14:13 039 4 gusting 10 -5.0
2020-Jan-21 14:09 360 3 gusting 10 -5.0
2020-Jan-21 14:03 027 2 gusting 10 -5.0
2020-Jan-21 13:59 034 1 gusting 10 -5.0
2020-Jan-21 13:53 041 3 gusting 11 -5.0
2020-Jan-21 13:49 355 4 gusting 11 -5.0
2020-Jan-21 13:43 040 4 gusting 9 -5.0
2020-Jan-21 13:39 360 4 gusting 11 -5.0
2020-Jan-21 13:33 360 4 gusting 11 -5.6
2020-Jan-21 13:29 040 5 gusting 10 -5.6
2020-Jan-21 13:23 012 3 gusting 8 -5.6
2020-Jan-21 13:19 350 2 gusting 6 -5.6
2020-Jan-21 13:13 344 2 gusting 9 -6.1
2020-Jan-21 13:09 090 5 gusting 9 -6.1
2020-Jan-21 13:03 331 1 gusting 9 -6.1
2020-Jan-21 12:59 322 4 gusting 9 -6.1
2020-Jan-21 12:53 005 3 gusting 7 -6.7
2020-Jan-21 12:49 035 2 gusting 7 -6.7
2020-Jan-21 12:43 010 2 gusting 5 -6.7
2020-Jan-21 12:39 038 1 gusting 4 -6.7
2020-Jan-21 12:33 313 1 gusting 5 -7.2
2020-Jan-21 12:29 308 1 gusting 6 -7.2
2020-Jan-21 12:23 038 1 gusting 6 -7.2
2020-Jan-21 12:19 360 1 gusting 5 -7.2
2020-Jan-21 12:13 036 1 gusting 7 -7.2
2020-Jan-21 12:09 019 1 gusting 5 -7.2
2020-Jan-21 12:03 313 1 gusting 6 -7.2
2020-Jan-21 11:59 347 1 gusting 6 -7.2
2020-Jan-21 11:53 348 1 gusting 6 -7.2
2020-Jan-21 11:49 024 2 gusting 6 -7.2
2020-Jan-21 11:43 340 0 gusting 4 -7.2
2020-Jan-21 11:39 017 0 gusting 6 -7.2
2020-Jan-21 11:33 050 2 gusting 6 -7.2
2020-Jan-21 11:29 348 1 gusting 6 -7.2
2020-Jan-21 11:23 050 1 gusting 4 -7.2
2020-Jan-21 11:19 336 1 gusting 4 -7.2
2020-Jan-21 11:13 024 0 gusting 4 -7.2
2020-Jan-21 11:09 012 1 gusting 4 -7.2
2020-Jan-21 11:03 341 2 gusting 5 -7.2
2020-Jan-21 10:59 019 1 gusting 7 -7.2
2020-Jan-21 10:53 005 2 gusting 7 -7.2
2020-Jan-21 10:49 355 1 gusting 5 -7.2
2020-Jan-21 10:43 355 2 gusting 6 -7.2
2020-Jan-21 10:39 034 2 gusting 6 -7.2
2020-Jan-21 10:33 013 1 gusting 7 -7.2
2020-Jan-21 10:29 335 1 gusting 7 -7.2
2020-Jan-21 10:23 333 2 gusting 7 -7.2
2020-Jan-21 10:19 005 2 gusting 8 -7.2
2020-Jan-21 10:13 360 2 gusting 8 -7.2
2020-Jan-21 10:09 022 3 gusting 9 -7.2
2020-Jan-21 10:03 360 3 gusting 9 -7.2
2020-Jan-21 09:59 346 2 gusting 10 -7.2
2020-Jan-21 09:53 330 3 gusting 11 -7.2
2020-Jan-21 09:49 038 3 gusting 9 -7.2
2020-Jan-21 09:43 315 1 gusting 8 -7.2
2020-Jan-21 09:39 021 2 gusting 8 -7.2
2020-Jan-21 09:33 341 2 gusting 7 -7.2
2020-Jan-21 09:29 009 2 gusting 9 -7.2
2020-Jan-21 09:23 360 3 gusting 9 -6.7
2020-Jan-21 09:19 049 2 gusting 9 -6.7
2020-Jan-21 09:13 027 3 gusting 11 -6.7
2020-Jan-21 09:09 035 4 gusting 12 -6.7
2020-Jan-21 09:03 005 4 gusting 13 -6.7
2020-Jan-21 08:59 047 5 gusting 13 -6.7
2020-Jan-21 08:53 329 3 gusting 10 -6.7
2020-Jan-21 08:49 318 2 gusting 9 -6.7
2020-Jan-21 08:43 338 3 gusting 7 -6.7
2020-Jan-21 08:39 360 2 gusting 6 -6.7
2020-Jan-21 08:33 017 2 gusting 10 -6.7
2020-Jan-21 08:29 013 3 gusting 10 -6.7
2020-Jan-21 08:23 340 2 gusting 9 -6.7
2020-Jan-21 08:19 360 2 gusting 11 -6.7
2020-Jan-21 08:13 005 4 gusting 11 -6.7
2020-Jan-21 08:09 045 2 gusting 10 -6.7
2020-Jan-21 08:03 336 3 gusting 10 -6.7
2020-Jan-21 07:59 336 3 gusting 7 -6.7
2020-Jan-21 07:53 329 2 gusting 8 -6.7
2020-Jan-21 07:49 031 1 gusting 9 -6.7
2020-Jan-21 07:43 011 3 gusting 9 -6.7
2020-Jan-21 07:39 342 2 gusting 11 -6.7
2020-Jan-21 07:33 337 3 gusting 7 -6.7
2020-Jan-21 07:29 342 3 gusting 9 -6.7
2020-Jan-21 07:23 031 3 gusting 9 -6.7
2020-Jan-21 07:19 288 3 gusting 12 -6.7
2020-Jan-21 07:13 351 3 gusting 12 -6.7
2020-Jan-21 07:09 344 4 gusting 9 -6.7
2020-Jan-21 07:03 333 2 gusting 5 -6.7
2020-Jan-21 06:59 355 2 gusting 6 -6.7
2020-Jan-21 06:53 333 2 gusting 8 -6.7
2020-Jan-21 06:49 328 2 gusting 8 -6.7
2020-Jan-21 06:43 360 2 gusting 6 -6.7
2020-Jan-21 06:39 360 1 gusting 7 -6.7
2020-Jan-21 06:33 005 1 gusting 7 -6.7
2020-Jan-21 06:29 348 2 gusting 7 -6.7
2020-Jan-21 06:23 335 2 gusting 5 -6.7
2020-Jan-21 06:19 355 2 gusting 5 -6.7
2020-Jan-21 06:13 306 2 gusting 8 -6.7
2020-Jan-21 06:09 017 2 gusting 8 -6.7
2020-Jan-21 06:03 319 2 gusting 12 -6.7
2020-Jan-21 05:59 005 3 gusting 8 -6.7
2020-Jan-21 05:53 016 3 gusting 9 -6.7
2020-Jan-21 05:49 032 2 gusting 9 -6.1
2020-Jan-21 05:43 038 4 gusting 13 -6.7
2020-Jan-21 05:39 355 5 gusting 13 -6.7
2020-Jan-21 05:33 347 3 gusting 8 -6.7
2020-Jan-21 05:29 034 2 gusting 8 -6.7
2020-Jan-21 05:23 322 2 gusting 10 -6.1
2020-Jan-21 05:19 339 2 gusting 13 -6.1
2020-Jan-21 05:13 015 4 gusting 13 -6.7
2020-Jan-21 05:09 028 2 gusting 8 -6.7
2020-Jan-21 05:03 298 1 gusting 6 -6.1
2020-Jan-21 04:59 333 2 gusting 8 -6.1
2020-Jan-21 04:53 302 3 gusting 8 -6.1
2020-Jan-21 04:49 032 3 gusting 7 -6.7
2020-Jan-21 04:43 318 1 gusting 6 -6.7
2020-Jan-21 04:39 337 2 gusting 6 -6.7
2020-Jan-21 04:33 305 2 gusting 5 -6.7
2020-Jan-21 04:29 317 2 gusting 7 -6.1
2020-Jan-21 04:23 344 3 gusting 7 -6.1
2020-Jan-21 04:19 337 2 gusting 6 -6.1
2020-Jan-21 04:13 336 1 gusting 6 -6.7
2020-Jan-21 04:09 348 2 gusting 6 -6.1
2020-Jan-21 04:03 336 2 gusting 4 -6.1
2020-Jan-21 03:59 322 1 gusting 6 -6.1
2020-Jan-21 03:53 315 1 gusting 6 -6.1
2020-Jan-21 03:49 349 2 gusting 6 -6.1
2020-Jan-21 03:43 025 1 gusting 6 -6.1
2020-Jan-21 03:39 355 1 gusting 6 -6.1
2020-Jan-21 03:33 302 3 gusting 6 -6.1
2020-Jan-21 03:29 306 3 gusting 7 -6.1
2020-Jan-21 03:23 018 2 gusting 7 -6.1
2020-Jan-21 03:19 309 2 gusting 7 -5.6
2020-Jan-21 03:13 349 2 gusting 10 -5.6
2020-Jan-21 03:09 324 3 gusting 10 -5.6
2020-Jan-21 03:03 319 2 gusting 10 -5.6
2020-Jan-21 02:59 331 4 gusting 10 -5.6
2020-Jan-21 02:53 333 4 gusting 10 -5.6
2020-Jan-21 02:49 324 4 gusting 10 -5.6
2020-Jan-21 02:43 019 3 gusting 10 -5.6
2020-Jan-21 02:39 317 3 gusting 10 -5.6
2020-Jan-21 02:33 318 3 gusting 9 -5.6
2020-Jan-21 02:29 059 2 gusting 8 -5.0
2020-Jan-21 02:23 315 3 gusting 8 -5.0
2020-Jan-21 02:19 314 2 gusting 6 -5.0
2020-Jan-21 02:13 317 1 gusting 10 -5.0
2020-Jan-21 02:09 011 2 gusting 10 -5.0
2020-Jan-21 02:03 024 3 gusting 11 -5.0
2020-Jan-21 01:59 318 4 gusting 11 -5.0
2020-Jan-21 01:53 046 3 gusting 9 -5.0
2020-Jan-21 01:49 011 1 gusting 5 -5.0
2020-Jan-21 01:43 321 0 gusting 6 -4.4
2020-Jan-21 01:39 315 3 gusting 7 -4.4
2020-Jan-21 01:33 325 2 gusting 8 -4.4
2020-Jan-21 01:29 319 1 gusting 9 -4.4
2020-Jan-21 01:23 344 3 gusting 9 -4.4
2020-Jan-21 01:19 328 3 gusting 8 -4.4
2020-Jan-21 01:13 333 2 gusting 8 -4.4
2020-Jan-21 01:09 031 2 gusting 8 -4.4
2020-Jan-21 01:03 005 3 gusting 8 -4.4